Date,TemperatureHighF,TemperatureAvgF,TemperatureLowF,DewpointHighF,DewpointAvgF,DewpointLowF,HumidityHigh,HumidityAvg,HumidityLow,PressureMaxIn,PressureMinIn,WindSpeedMaxMPH,WindSpeedAvgMPH,GustSpeedMaxMPH,PrecipitationSumIn
2013-2-1,56.2,43.4,32.4,50.4,41.0,30.6,96,92,76,30.24,30.17,6,1,6,0.02
2013-2-2,42.1,38.0,32.6,40.5,36.5,31.1,95,94,93,30.23,30.09,4,1,4,0.00
2013-2-3,47.5,40.1,31.1,46.2,38.7,29.7,96,94,91,30.15,30.05,2,0,2,0.09
2013-2-4,52.7,45.0,40.9,48.1,42.5,39.5,96,91,75,30.06,29.72,5,1,5,0.00
2013-2-5,52.0,43.9,40.9,47.9,41.9,39.2,95,93,77,29.81,29.68,10,1,10,0.37
2013-2-6,52.6,43.8,40.0,46.6,40.8,38.1,95,90,66,29.91,29.64,7,1,7,0.14
2013-2-7,53.1,39.6,28.1,43.7,35.2,25.8,95,85,52,30.03,29.64,13,1,13,0.09
2013-2-8,44.6,35.3,26.8,40.4,32.3,24.9,94,89,72,30.14,30.03,6,0,6,0.00
2013-2-9,46.4,39.8,36.0,41.3,37.2,33.8,94,90,77,30.17,30.09,4,0,4,0.01
2013-2-10,48.4,40.1,33.7,42.3,36.3,32.0,95,87,66,30.21,30.15,8,1,8,0.01
2013-2-11,48.6,41.6,35.3,41.1,37.8,33.7,94,87,68,30.20,30.16,5,0,5,0.00
2013-2-12,49.3,45.5,41.4,47.4,43.4,39.5,95,92,87,30.24,30.16,13,2,13,0.07
2013-2-13,47.9,47.1,46.1,44.3,43.9,43.2,93,88,85,30.19,30.15,10,3,10,0.01
2013-2-14,50.8,45.9,39.2,46.4,43.2,37.4,95,90,83,30.39,30.36,4,0,4,0.04
2013-2-15,60.8,43.8,33.1,50.7,40.0,31.1,95,87,64,30.31,30.02,6,1,6,0.00
2013-2-16,53.8,43.0,31.1,45.3,38.0,29.3,95,83,64,30.05,29.96,16,3,16,0.00
2013-2-17,49.3,42.1,38.2,38.1,35.4,32.2,91,78,56,30.09,29.96,8,2,8,0.01
2013-2-18,48.6,39.1,31.7,39.6,34.7,29.4,93,85,63,29.95,29.60,6,1,6,0.00
2013-2-19,51.1,34.8,29.9,39.4,31.6,28.1,95,89,57,29.65,29.57,6,0,6,0.00
2013-2-20,45.2,33.0,27.4,39.1,30.4,25.1,94,90,76,29.89,29.83,6,0,6,0.05
2013-2-21,42.1,39.4,32.8,39.8,37.1,30.7,95,91,87,29.93,29.85,11,2,11,0.15
2013-2-22,44.5,40.9,38.0,41.7,38.2,34.0,95,90,84,29.91,29.57,14,3,14,0.68
2013-2-23,48.1,41.2,37.8,42.3,36.7,34.1,91,84,68,30.22,29.76,9,2,9,0.04
2013-2-24,48.1,42.1,38.0,40.1,37.3,34.8,93,84,67,30.23,29.80,9,1,9,0.01
2013-2-25,52.7,42.8,39.8,39.6,36.1,30.2,94,78,43,30.15,29.75,17,4,17,0.13
2013-2-26,50.4,42.2,35.6,37.7,34.3,30.0,90,75,46,30.19,30.04,8,1,8,0.00
2013-2-27,51.5,43.0,35.3,44.5,39.8,33.2,95,89,69,30.15,30.04,6,1,6,0.27
2013-2-28,48.6,44.6,40.7,47.0,43.1,39.1,95,94,94,30.18,30.02,4,0,4,0.53